Curacao, Curacao

11:16 AM AST on October 19, 2017 (GMT -0400)
Willemstad-Hato International

Weather History for TNCC - April, 2014

Change the Weather History Date:

Monday, April 14, 2014

  Actual Average Record
Temperature  
Mean Temperature 83 °F -  
Max Temperature 89 °F 87 °F 89 °F (2001)
Min Temperature 77 °F 76 °F 32 °F (1997)
Cooling Degree Days 18    
Growing Degree Days 33 (Base 50)    
Moisture  
Dew Point 71 °F    
Average Humidity 72    
Maximum Humidity 78    
Minimum Humidity 55    
Precipitation  
Precipitation 0.00 in 0.03 in - ()
Sea Level Pressure  
Sea Level Pressure 29.88 in    
Wind  
Wind Speed 12 mph ()    
Max Wind Speed 18 mph    
Max Gust Speed -    
Visibility 8.0 miles    
Events      
Averages and records for this station are not official NWS values.
T = Trace of Precipitation, MM = Missing Value Source: Averaged Metar Reports

Daily Weather History Graph

Daily Weather History Graph

Search for Another Location

Airport or City:

Trip Planner

Search our weather history database for the weather conditions in past years. The results will help you decide how hot, cold, wet, or windy it might be!

Date:

Astronomy

Apr. 14, 2014 Rise Set
Actual Time 6:24 AM AST 6:47 PM AST
Civil Twilight 6:02 AM AST 7:09 PM AST
Nautical Twilight 5:37 AM AST 7:34 PM AST
Astronomical Twilight 5:12 AM AST 7:59 PM AST
Moon 6:25 PM AST (4/14) 5:46 AM AST (4/14)
Length of Visible Light 13h 06m
Length of Day
12h 23m
Full, 100% of the Moon is Illuminated
Apr 14
Full
Apr 15
Full
Apr 22
Last Quarter
Apr 29
New
May 6
First Quarter

Hourly Weather History & Observations

Time (AST) Temp. Heat Index Dew Point Humidity Pressure Visibility Wind Dir Wind Speed Gust Speed Precip Events Conditions
12:00 AM 78.8 °F - 71.6 °F 78% 29.89 in 6.2 mi East 12.7 mph - N/A   Partly Cloudy
1:00 AM 78.8 °F - 71.6 °F 78% 29.89 in 6.2 mi East 11.5 mph - N/A   Scattered Clouds
2:00 AM 78 °F - 72 °F 78% 29.88 in 25 mi ESE 11.5 mph - -   Partly Cloudy
2:00 AM 78.8 °F - 71.6 °F 78% 29.89 in 6.2 mi ESE 11.5 mph - N/A   Scattered Clouds
3:00 AM 78.8 °F - 71.6 °F 78% 29.86 in 6.2 mi ESE 12.7 mph - N/A   Scattered Clouds
4:00 AM 78.8 °F - 71.6 °F 78% 29.86 in 6.2 mi ESE 12.7 mph - N/A   Scattered Clouds
5:00 AM 78 °F - 71 °F 75% 29.87 in 25 mi East 11.5 mph - -   Partly Cloudy
5:00 AM 78.8 °F - 71.6 °F 78% 29.86 in 6.2 mi East 11.5 mph - N/A   Scattered Clouds
6:00 AM 78.8 °F - 71.6 °F 78% 29.89 in 6.2 mi ESE 12.7 mph - N/A   Scattered Clouds
7:00 AM 78.8 °F - 71.6 °F 78% 29.89 in 6.2 mi ESE 11.5 mph - N/A   Scattered Clouds
8:00 AM 79 °F - 71 °F 72% 29.93 in 25 mi East 10.4 mph - -   Mostly Cloudy
8:00 AM 78.8 °F - 71.6 °F 78% 29.92 in 6.2 mi East 10.4 mph - N/A   Mostly Cloudy
9:00 AM 80.6 °F 84.6 °F 71.6 °F 74% 29.92 in 6.2 mi ESE 13.8 mph - N/A   Mostly Cloudy
10:00 AM 80.6 °F 84.6 °F 71.6 °F 74% 29.92 in 6.2 mi ESE 13.8 mph - N/A   Mostly Cloudy
11:00 AM 84 °F - 72 °F 59% 29.94 in 25 mi East 13.8 mph - -   Mostly Cloudy
11:00 AM 84.2 °F 89.6 °F 71.6 °F 66% 29.92 in 6.2 mi East 13.8 mph - N/A   Mostly Cloudy
12:00 PM 84.2 °F 89.6 °F 71.6 °F 66% 29.92 in 6.2 mi East 13.8 mph - N/A   Mostly Cloudy
1:00 PM 84.2 °F 89.6 °F 71.6 °F 66% 29.89 in 6.2 mi East 16.1 mph - N/A   Scattered Clouds
2:00 PM 85 °F - - % 29.87 in 19 mi East 15.0 mph - -  
2:00 PM 84.2 °F 88.4 °F 69.8 °F 62% 29.86 in 6.2 mi East 15.0 mph - N/A   Partly Cloudy
3:00 PM 86.0 °F 89.4 °F 68.0 °F 55% 29.83 in 6.2 mi ESE 18.4 mph - N/A   Partly Cloudy
4:00 PM 84.2 °F 88.4 °F 69.8 °F 62% 29.83 in 6.2 mi East 16.1 mph - N/A   Partly Cloudy
5:00 PM 83 °F - 70 °F 57% 29.82 in 19 mi East 15.0 mph - -   Scattered Clouds
5:00 PM 84.2 °F 87.3 °F 68.0 °F 58% 29.80 in 6.2 mi East 13.8 mph - N/A   Partly Cloudy
6:00 PM 80.6 °F 84.6 °F 71.6 °F 74% 29.83 in 6.2 mi East 12.7 mph - N/A   Partly Cloudy
7:00 PM 80.6 °F 84.6 °F 71.6 °F 74% 29.83 in 6.2 mi East 11.5 mph - N/A   Partly Cloudy
8:00 PM 80 °F - 72 °F 70% 29.86 in 19 mi East 12.7 mph - -   Scattered Clouds
8:00 PM 80.6 °F 84.6 °F 71.6 °F 74% 29.86 in 6.2 mi East 12.7 mph - N/A   Partly Cloudy
9:00 PM 78.8 °F - 71.6 °F 78% 29.86 in 6.2 mi East 12.7 mph - N/A   Partly Cloudy
10:00 PM 78.8 °F - 71.6 °F 78% 29.89 in 6.2 mi East 12.7 mph - N/A   Partly Cloudy
11:00 PM 79 °F - 72 °F 73% 29.91 in 19 mi East 12.7 mph - -   Partly Cloudy
11:00 PM 78.8 °F - 71.6 °F 78% 29.89 in 6.2 mi East 12.7 mph - N/A   Scattered Clouds